DLH41U EDDM-LPPR

Flight info

Callsign DLH41U
Flight time N/A
Altitude 33000
Route ALG2S/26L ALG Y109 UMTEX Y100 TRA DCT LUTIX/N0450F350 DCT BENOT DCT NEMOS DCT NINTU/N0445F330 DCT MEBAK/N0449F350 DCT REPSI DCT LERGA DCT MINSO DCT NARAK DCT AGN DCT PIPOR L866 PPN N976 ZMR L155 ADORO DCT INKIT
Aircraft A321/M-SDE2E3FGIJ1LORWXYZ/HB1

Departure

Time 2026-05-07 13:58
Airport Munich Airport (EDDM)

Arrival

Time N/A
Airport Francisco de Sá Carneiro Airport (LPPR)
Time Latitude Longitude Altitude Speed Heading
2026-05-07 13:25 48.35255 11.79329 1460 ft 0 kts 263°
2026-05-07 13:46 48.35255 11.79331 1467 ft 2 kts 263°
2026-05-07 13:47 48.35257 11.79369 1464 ft 4 kts 271°
2026-05-07 13:47 48.35254 11.79409 1462 ft 4 kts 281°
2026-05-07 13:47 48.35248 11.79448 1467 ft 4 kts 293°
2026-05-07 13:47 48.35234 11.79482 1459 ft 4 kts 318°
2026-05-07 13:48 48.35219 11.79496 1459 ft 0 kts 353°
2026-05-07 13:48 48.35240 11.79491 1458 ft 3 kts 352°
2026-05-07 13:48 48.35244 11.79490 1462 ft 0 kts 352°
2026-05-07 13:51 48.35249 11.79490 1463 ft 1 kts 355°
2026-05-07 13:52 48.35261 11.79499 1463 ft 3 kts 37°
2026-05-07 13:52 48.35261 11.79536 1461 ft 4 kts 114°
2026-05-07 13:52 48.35227 11.79561 1463 ft 7 kts 169°
2026-05-07 13:52 48.35167 11.79573 1467 ft 11 kts 173°
2026-05-07 13:53 48.35081 11.79589 1460 ft 13 kts 173°
2026-05-07 13:53 48.34994 11.79628 1456 ft 13 kts 142°
2026-05-07 13:53 48.34912 11.79685 1464 ft 13 kts 174°
2026-05-07 13:53 48.34816 11.79700 1462 ft 14 kts 173°
2026-05-07 13:54 48.34721 11.79711 1467 ft 13 kts 189°
2026-05-07 13:54 48.34667 11.79617 1462 ft 13 kts 238°
2026-05-07 13:54 48.34630 11.79542 1462 ft 0 kts 233°
2026-05-07 13:54 48.34627 11.79535 1462 ft 2 kts 233°
2026-05-07 13:55 48.34613 11.79508 1460 ft 4 kts 233°
2026-05-07 13:55 48.34590 11.79461 1465 ft 7 kts 233°
2026-05-07 13:55 48.34567 11.79415 1462 ft 3 kts 233°
2026-05-07 13:55 48.34552 11.79383 1464 ft 5 kts 233°
2026-05-07 13:56 48.34529 11.79337 1463 ft 6 kts 233°
2026-05-07 13:56 48.34514 11.79306 1463 ft 0 kts 233°
2026-05-07 13:56 48.34495 11.79269 1463 ft 9 kts 233°
2026-05-07 13:57 48.34446 11.79171 1462 ft 15 kts 232°
2026-05-07 13:57 48.34381 11.79040 1463 ft 14 kts 236°
2026-05-07 13:57 48.34359 11.78908 1464 ft 13 kts 263°
2026-05-07 13:57 48.34342 11.78695 1465 ft 38 kts 263°
2026-05-07 13:58 48.34287 11.77959 1471 ft 104 kts 263°
2026-05-07 13:58 48.34183 11.76589 1470 ft 158 kts 263°
2026-05-07 13:58 48.34038 11.74850 1990 ft 166 kts 265°
2026-05-07 13:58 48.33903 11.73128 2785 ft 167 kts 266°
2026-05-07 13:59 48.33773 11.71326 3166 ft 182 kts 266°
2026-05-07 13:59 48.33629 11.69323 3354 ft 203 kts 266°
2026-05-07 13:59 48.33467 11.67133 3665 ft 215 kts 265°
2026-05-07 13:59 48.33292 11.64871 4206 ft 219 kts 265°
2026-05-07 14:00 48.33118 11.62505 4505 ft 239 kts 265°
2026-05-07 14:00 48.32936 11.59934 4946 ft 251 kts 265°
2026-05-07 14:00 48.32748 11.57311 5628 ft 254 kts 264°
2026-05-07 14:00 48.32557 11.54643 6293 ft 258 kts 264°
2026-05-07 14:01 48.32361 11.51959 6975 ft 259 kts 264°
2026-05-07 14:01 48.32161 11.49261 7611 ft 261 kts 262°
2026-05-07 14:01 48.31655 11.46628 8220 ft 266 kts 250°
2026-05-07 14:01 48.31002 11.44023 8883 ft 268 kts 250°
2026-05-07 14:02 48.30348 11.41400 9533 ft 270 kts 250°
2026-05-07 14:02 48.29685 11.38740 10141 ft 273 kts 250°
2026-05-07 14:02 48.28998 11.35988 10348 ft 292 kts 250°
2026-05-07 14:02 48.28263 11.33044 10472 ft 311 kts 250°
2026-05-07 14:03 48.27483 11.29928 10681 ft 325 kts 250°
2026-05-07 14:03 48.26680 11.26727 11158 ft 330 kts 250°
2026-05-07 14:03 48.25866 11.23490 11707 ft 332 kts 250°
2026-05-07 14:03 48.25046 11.20241 12284 ft 334 kts 250°
2026-05-07 14:04 48.24218 11.16974 12863 ft 336 kts 249°
2026-05-07 14:04 48.23383 11.13686 13439 ft 339 kts 249°
2026-05-07 14:04 48.22539 11.10371 13968 ft 341 kts 249°
2026-05-07 14:04 48.21688 11.07031 14468 ft 344 kts 249°
2026-05-07 14:05 48.20831 11.03667 14936 ft 347 kts 250°
2026-05-07 14:05 48.19967 11.00270 15414 ft 349 kts 250°
2026-05-07 14:05 48.19097 10.96852 15900 ft 352 kts 250°
2026-05-07 14:05 48.18218 10.93409 16377 ft 355 kts 250°
2026-05-07 14:06 48.17330 10.89940 16838 ft 358 kts 250°
2026-05-07 14:06 48.16431 10.86439 17291 ft 361 kts 250°
2026-05-07 14:06 48.15525 10.82913 17747 ft 364 kts 250°
2026-05-07 14:06 48.14610 10.79363 18201 ft 367 kts 250°
2026-05-07 14:07 48.13687 10.75786 18570 ft 370 kts 250°
2026-05-07 14:07 48.12757 10.72182 18915 ft 373 kts 250°
2026-05-07 14:07 48.11819 10.68541 19154 ft 377 kts 250°
2026-05-07 14:07 48.10874 10.64874 19524 ft 379 kts 250°
2026-05-07 14:08 48.09923 10.61188 19905 ft 381 kts 250°
2026-05-07 14:08 48.08963 10.57486 20294 ft 383 kts 250°
2026-05-07 14:08 48.07995 10.53760 20680 ft 385 kts 250°
2026-05-07 14:08 48.07021 10.50021 21071 ft 387 kts 250°
2026-05-07 14:09 48.06039 10.46259 21444 ft 389 kts 250°
2026-05-07 14:09 48.05051 10.42478 21818 ft 392 kts 250°
2026-05-07 14:09 48.04056 10.38678 22199 ft 394 kts 250°
2026-05-07 14:09 48.03057 10.34859 22555 ft 396 kts 250°
2026-05-07 14:10 48.02051 10.31025 22924 ft 398 kts 250°
2026-05-07 14:10 48.01037 10.27167 23283 ft 400 kts 250°
2026-05-07 14:10 48.00030 10.23344 23635 ft 402 kts 250°
2026-05-07 14:10 47.99002 10.19448 23908 ft 405 kts 250°
2026-05-07 14:11 47.97952 10.15478 24220 ft 407 kts 249°
2026-05-07 14:11 47.96922 10.11601 24561 ft 407 kts 249°
2026-05-07 14:11 47.95857 10.07608 24882 ft 409 kts 249°
2026-05-07 14:11 47.94819 10.03709 25206 ft 411 kts 249°
2026-05-07 14:12 47.93763 9.99739 25487 ft 413 kts 249°
2026-05-07 14:12 47.92700 9.95744 25800 ft 415 kts 249°
2026-05-07 14:12 47.91633 9.91738 26106 ft 417 kts 249°
2026-05-07 14:12 47.90555 9.87702 26427 ft 419 kts 249°
2026-05-07 14:13 47.89475 9.83657 26715 ft 421 kts 249°
2026-05-07 14:13 47.88391 9.79606 26992 ft 423 kts 249°
2026-05-07 14:13 47.87295 9.75531 27267 ft 425 kts 249°
2026-05-07 14:13 47.86192 9.71445 27584 ft 425 kts 249°
2026-05-07 14:14 47.85086 9.67355 27872 ft 427 kts 249°
2026-05-07 14:14 47.84021 9.63225 28153 ft 428 kts 253°
2026-05-07 14:14 47.83331 9.58912 28418 ft 429 kts 261°
2026-05-07 14:14 47.82824 9.54533 28680 ft 431 kts 261°
2026-05-07 14:15 47.82303 9.50136 28929 ft 432 kts 260°
2026-05-07 14:15 47.81769 9.45724 29173 ft 434 kts 260°
2026-05-07 14:15 47.81227 9.41294 29414 ft 436 kts 260°
2026-05-07 14:15 47.80683 9.36853 29656 ft 438 kts 260°
2026-05-07 14:16 47.80136 9.32389 29890 ft 439 kts 260°
2026-05-07 14:16 47.79588 9.27917 30112 ft 440 kts 260°
2026-05-07 14:16 47.79039 9.23441 30339 ft 440 kts 260°
2026-05-07 14:16 47.78491 9.18974 30609 ft 438 kts 260°
2026-05-07 14:17 47.77944 9.14523 30871 ft 437 kts 260°
2026-05-07 14:17 47.77396 9.10078 31131 ft 437 kts 260°
2026-05-07 14:17 47.76845 9.05645 31368 ft 436 kts 260°
2026-05-07 14:17 47.76291 9.01220 31629 ft 435 kts 260°
2026-05-07 14:18 47.75737 8.96801 31879 ft 434 kts 260°
2026-05-07 14:18 47.75184 8.92395 32116 ft 433 kts 260°
2026-05-07 14:18 47.74629 8.87997 32356 ft 432 kts 260°
2026-05-07 14:18 47.74075 8.83618 32598 ft 431 kts 259°
2026-05-07 14:19 47.73519 8.79243 32844 ft 430 kts 259°
2026-05-07 14:19 47.72962 8.74887 33067 ft 429 kts 259°
2026-05-07 14:19 47.72407 8.70528 33284 ft 429 kts 260°
2026-05-07 14:19 47.71852 8.66184 33495 ft 428 kts 260°
2026-05-07 14:20 47.71297 8.61842 33708 ft 428 kts 259°
2026-05-07 14:20 47.70738 8.57507 33907 ft 427 kts 259°
2026-05-07 14:20 47.70176 8.53179 34106 ft 427 kts 259°
2026-05-07 14:20 47.69609 8.48863 34254 ft 426 kts 258°
2026-05-07 14:21 47.68759 8.44660 34433 ft 426 kts 249°
2026-05-07 14:21 47.67450 8.40720 34581 ft 427 kts 239°
2026-05-07 14:21 47.65754 8.37095 34715 ft 428 kts 236°
2026-05-07 14:21 47.64009 8.33521 34860 ft 428 kts 236°
2026-05-07 14:22 47.62295 8.29989 34991 ft 428 kts 236°
2026-05-07 14:22 47.58839 8.22840 35024 ft 427 kts 236°
2026-05-07 14:23 47.55373 8.15707 35024 ft 426 kts 236°
2026-05-07 14:23 47.51906 8.08590 35024 ft 426 kts 236°
2026-05-07 14:24 47.48441 8.01507 35019 ft 424 kts 236°
2026-05-07 14:24 47.44986 7.94459 35016 ft 423 kts 236°
2026-05-07 14:25 47.41526 7.87421 35014 ft 423 kts 236°
2026-05-07 14:25 47.38062 7.80388 35017 ft 424 kts 236°
2026-05-07 14:26 47.34590 7.73373 35020 ft 424 kts 236°
2026-05-07 14:26 47.31112 7.66352 35026 ft 424 kts 236°
2026-05-07 14:27 47.27631 7.59347 35037 ft 423 kts 236°
2026-05-07 14:27 47.24151 7.52364 35037 ft 423 kts 236°
2026-05-07 14:28 47.20667 7.45385 35050 ft 423 kts 236°
2026-05-07 14:28 47.17175 7.38423 35050 ft 423 kts 236°
2026-05-07 14:29 47.13616 7.31538 35036 ft 423 kts 234°
2026-05-07 14:29 47.09928 7.24805 35031 ft 423 kts 233°
2026-05-07 14:30 47.06224 7.18123 35033 ft 422 kts 233°
2026-05-07 14:30 47.02549 7.11409 35060 ft 422 kts 234°
2026-05-07 14:31 46.98891 7.04701 35051 ft 421 kts 234°
2026-05-07 14:31 46.95229 6.97999 35039 ft 421 kts 234°
2026-05-07 14:32 46.91563 6.91328 35045 ft 420 kts 233°
2026-05-07 14:32 46.87901 6.84686 35049 ft 419 kts 233°
2026-05-07 14:33 46.84252 6.78102 35052 ft 419 kts 233°
2026-05-07 14:33 46.80555 6.71439 35048 ft 419 kts 233°
2026-05-07 14:34 46.76887 6.64822 35031 ft 419 kts 233°
2026-05-07 14:34 46.73215 6.58235 35040 ft 418 kts 233°
2026-05-07 14:35 46.69572 6.51714 35034 ft 417 kts 233°
2026-05-07 14:35 46.65910 6.45181 35043 ft 417 kts 233°
2026-05-07 14:36 46.62245 6.38647 35038 ft 416 kts 233°
2026-05-07 14:36 46.58581 6.32120 35037 ft 416 kts 233°
2026-05-07 14:37 46.54916 6.25601 35037 ft 417 kts 233°
2026-05-07 14:37 46.49995 6.16896 35037 ft 417 kts 233°
2026-05-07 14:38 46.46309 6.10407 35037 ft 417 kts 233°
2026-05-07 14:38 46.42621 6.03919 35036 ft 417 kts 233°
2026-05-07 14:39 46.38927 5.97438 35020 ft 417 kts 233°
2026-05-07 14:39 46.35237 5.90980 35030 ft 415 kts 232°
2026-05-07 14:40 46.31559 5.84555 35027 ft 414 kts 233°
2026-05-07 14:40 46.27881 5.78143 35029 ft 414 kts 233°
2026-05-07 14:41 46.24200 5.71740 35031 ft 414 kts 233°
2026-05-07 14:41 46.20520 5.65345 35040 ft 414 kts 233°
2026-05-07 14:42 46.16840 5.58964 35035 ft 413 kts 233°
2026-05-07 14:42 46.13360 5.52461 35041 ft 411 kts 237°
2026-05-07 14:43 46.10115 5.45672 35040 ft 412 kts 237°
2026-05-07 14:43 46.06861 5.38892 35039 ft 411 kts 237°
2026-05-07 14:44 46.03601 5.32120 35029 ft 411 kts 237°
2026-05-07 14:44 46.00333 5.25359 35035 ft 411 kts 237°
2026-05-07 14:45 45.97069 5.18618 35031 ft 411 kts 237°
2026-05-07 14:45 45.93807 5.11884 35029 ft 411 kts 237°
2026-05-07 14:46 45.90538 5.05154 35020 ft 411 kts 237°
2026-05-07 14:46 45.87260 4.98434 35020 ft 411 kts 237°
2026-05-07 14:47 45.83982 4.91723 35004 ft 411 kts 236°
2026-05-07 14:47 45.80698 4.85017 35009 ft 411 kts 236°
2026-05-07 14:48 45.77412 4.78315 35014 ft 411 kts 236°
2026-05-07 14:48 45.74122 4.71621 35018 ft 411 kts 236°
2026-05-07 14:49 45.70824 4.64946 35036 ft 411 kts 236°
2026-05-07 14:49 45.67523 4.58262 35012 ft 411 kts 236°
2026-05-07 14:50 45.64224 4.51573 35013 ft 412 kts 236°
2026-05-07 14:50 45.60916 4.44901 35011 ft 412 kts 236°
2026-05-07 14:51 45.57598 4.38235 35012 ft 412 kts 236°
2026-05-07 14:51 45.54271 4.31570 35015 ft 412 kts 235°
2026-05-07 14:52 45.50967 4.24963 35018 ft 412 kts 235°
2026-05-07 14:52 45.47632 4.18321 35015 ft 412 kts 235°
2026-05-07 14:53 45.44296 4.11679 35017 ft 412 kts 235°
2026-05-07 14:53 45.40955 4.05039 35018 ft 412 kts 235°
2026-05-07 14:54 45.37602 3.98408 35017 ft 413 kts 235°
2026-05-07 14:54 45.34251 3.91788 35017 ft 413 kts 235°
2026-05-07 14:55 45.30897 3.85175 35011 ft 413 kts 234°
2026-05-07 14:55 45.27530 3.78562 35013 ft 413 kts 234°
2026-05-07 14:56 45.24176 3.71944 35005 ft 413 kts 235°
2026-05-07 14:56 45.20887 3.65265 35006 ft 413 kts 235°
2026-05-07 14:57 45.17619 3.58554 35009 ft 413 kts 235°
2026-05-07 14:57 45.14331 3.51874 35005 ft 414 kts 235°
2026-05-07 14:58 45.11001 3.45166 34997 ft 413 kts 235°
2026-05-07 14:58 45.07689 3.38517 35000 ft 413 kts 235°
2026-05-07 14:59 45.04376 3.31874 35006 ft 413 kts 235°
2026-05-07 14:59 45.01066 3.25223 35006 ft 414 kts 235°
2026-05-07 15:00 44.97771 3.18623 35010 ft 414 kts 234°
2026-05-07 15:00 44.94428 3.11947 35003 ft 414 kts 234°
2026-05-07 15:01 44.91120 3.05373 35007 ft 413 kts 234°
2026-05-07 15:01 44.87787 2.98764 35013 ft 414 kts 234°
2026-05-07 15:02 44.84452 2.92157 35007 ft 414 kts 235°
2026-05-07 15:02 44.81264 2.85402 35008 ft 414 kts 237°
2026-05-07 15:03 44.78176 2.78546 35012 ft 414 kts 237°
2026-05-07 15:03 44.75074 2.71708 35014 ft 414 kts 237°
2026-05-07 15:04 44.71931 2.64911 35016 ft 415 kts 236°
2026-05-07 15:04 44.68765 2.58128 35009 ft 415 kts 236°
2026-05-07 15:05 44.65599 2.51333 35005 ft 416 kts 236°
2026-05-07 15:05 44.62431 2.44532 35007 ft 416 kts 236°
2026-05-07 15:06 44.59264 2.37737 35008 ft 416 kts 236°
2026-05-07 15:06 44.56086 2.30961 35004 ft 416 kts 236°
2026-05-07 15:07 44.52904 2.24197 34996 ft 416 kts 236°
2026-05-07 15:07 44.49723 2.17431 34993 ft 416 kts 236°
2026-05-07 15:08 44.46556 2.10714 34995 ft 416 kts 236°
2026-05-07 15:08 44.43364 2.03957 34996 ft 416 kts 236°
2026-05-07 15:09 44.40166 1.97208 34987 ft 416 kts 236°
2026-05-07 15:09 44.36960 1.90469 35009 ft 416 kts 235°
2026-05-07 15:10 44.33749 1.83748 35007 ft 416 kts 236°
2026-05-07 15:10 44.30541 1.77028 35003 ft 416 kts 236°
2026-05-07 15:11 44.27356 1.70287 35000 ft 416 kts 236°
2026-05-07 15:11 44.24252 1.63477 34999 ft 416 kts 237°
2026-05-07 15:12 44.21157 1.56664 34994 ft 416 kts 237°
2026-05-07 15:12 44.18036 1.49876 35006 ft 416 kts 236°
2026-05-07 15:13 44.14906 1.43115 35002 ft 415 kts 236°
2026-05-07 15:13 44.11767 1.36362 35000 ft 415 kts 236°
2026-05-07 15:14 44.08631 1.29618 34995 ft 415 kts 236°
2026-05-07 15:14 44.05497 1.22879 34993 ft 415 kts 236°
2026-05-07 15:15 44.02355 1.16148 34997 ft 415 kts 236°
2026-05-07 15:15 43.99214 1.09426 35001 ft 414 kts 236°
2026-05-07 15:16 43.96074 1.02718 34999 ft 414 kts 236°
2026-05-07 15:16 43.92922 0.96014 34999 ft 414 kts 236°
2026-05-07 15:17 43.89769 0.89318 34994 ft 414 kts 236°
2026-05-07 15:17 43.86697 0.82617 34994 ft 415 kts 237°
2026-05-07 15:18 43.83770 0.75734 35011 ft 415 kts 238°